Theta_e
315 314 314 314 313 313 313 312 312 312 312 312 312 312 311 311 311 311 311 311 311 310 310 310 311 310 310 310 310 310 310 310 310 310 310 310 310 311 311 312 312 313 314 315 316 317 318 318 318 318 319 320 320 321 323 325 325 325 326 326 327 328 328 328 329 329 328 328 327 328 328 327 327 327 328 328 328 329 329 329 329 329 328 328 327
313 313 313 312 312 313 312 312 312 312 312 311 311 311 311 310 310 310 310 310 309 309 309 309 309 309 309 309 308 308 308 308 308 309 309 309 309 310 310 311 312 312 313 314 315 316 316 317 318 318 319 319 319 320 321 323 325 325 325 326 326 327 327 328 328 328 328 328 327 327 328 327 327 327 328 328 328 328 328 328 329 329 329 328 328
312 311 311 312 312 312 312 311 311 311 311 311 310 310 310 309 309 309 309 308 308 308 308 307 307 307 307 307 307 307 307 307 307 307 308 308 309 309 309 310 311 311 312 313 314 314 315 316 316 317 317 318 319 319 320 321 323 324 325 325 325 325 326 327 327 328 328 328 327 327 327 327 327 328 328 328 327 328 328 328 329 329 329 329 328
310 310 311 312 312 311 311 311 310 310 310 309 309 309 308 308 308 308 307 307 306 306 306 306 305 305 305 305 305 305 306 306 306 307 307 307 308 308 309 309 310 310 310 311 312 312 313 313 314 314 315 316 317 318 318 320 322 323 324 325 325 325 326 326 327 327 327 328 327 327 327 327 327 327 327 328 328 328 328 328 328 329 329 329 328
310 310 310 311 311 310 310 310 309 309 309 308 308 308 307 307 306 306 305 305 305 304 304 304 304 304 304 304 304 304 305 305 305 306 306 307 307 307 308 308 309 309 309 309 310 310 311 312 312 313 314 315 316 317 317 318 319 321 323 324 325 325 326 326 326 327 327 327 328 327 327 327 326 326 326 327 328 328 328 328 328 329 329 329 329
309 309 309 310 310 310 309 309 309 308 308 307 307 306 306 305 304 304 303 303 303 303 302 302 302 302 302 303 303 303 303 304 304 305 305 306 306 307 307 308 308 308 308 309 309 310 310 311 312 313 314 315 316 317 317 317 318 319 321 323 325 325 326 326 326 326 326 327 327 327 327 326 326 326 326 327 328 328 328 328 328 328 328 329 329
308 308 308 309 309 309 308 308 307 306 306 306 305 304 304 303 302 302 302 302 301 301 301 301 301 302 301 302 302 302 302 302 303 303 304 305 306 306 306 307 307 308 308 308 309 309 310 311 311 312 313 314 315 316 317 318 318 318 319 321 323 325 326 326 326 326 326 326 327 327 327 327 326 326 326 326 327 328 328 328 328 328 328 328 329
307 307 307 307 307 307 306 305 305 305 304 303 303 302 302 301 301 301 301 301 300 300 300 300 300 301 301 301 301 301 301 301 302 302 303 303 304 305 306 306 306 307 308 308 308 309 309 310 310 311 312 312 313 314 316 316 317 318 318 319 321 323 324 325 326 326 326 326 326 327 327 326 325 325 325 326 326 327 328 328 328 327 327 328 328
307 306 306 306 305 304 303 303 303 303 302 302 301 301 300 300 300 300 300 299 299 299 299 299 299 300 300 300 300 300 300 300 300 300 301 301 302 303 304 305 305 305 306 307 307 307 308 309 309 310 310 311 312 313 314 315 315 316 318 318 320 321 322 324 325 326 326 326 326 327 327 326 325 324 324 325 326 326 327 328 327 327 328 328 328
305 304 304 304 303 302 302 302 301 301 300 300 300 300 299 299 299 299 299 298 299 298 299 299 299 299 299 299 299 299 299 298 298 299 299 300 301 301 302 303 303 303 304 305 306 306 306 307 308 308 309 310 311 311 313 314 315 315 316 317 318 320 321 323 324 325 326 326 327 327 327 326 326 325 325 325 326 326 325 326 327 327 328 328 328
303 303 302 301 301 301 301 300 300 300 299 299 299 299 299 298 298 298 298 298 298 298 298 298 298 298 298 298 298 298 298 297 297 298 298 299 299 300 301 301 301 301 302 302 303 304 305 305 306 307 307 308 309 310 311 313 314 315 316 317 318 318 320 322 324 324 325 326 326 326 327 326 326 326 325 324 325 325 325 326 326 327 328 328 328
302 301 301 300 300 300 300 299 299 299 298 298 298 298 298 298 298 297 297 297 297 297 297 297 298 298 298 298 298 297 297 297 297 297 297 298 298 299 299 300 300 300 300 300 301 301 302 303 304 305 305 306 307 308 310 311 313 314 316 317 318 319 319 320 322 324 325 326 326 325 326 327 326 326 326 325 324 324 325 325 326 326 327 327 327
301 300 299 299 299 299 299 298 298 298 298 298 298 298 297 297 297 297 297 297 297 297 297 297 297 297 297 297 297 297 296 296 296 297 297 297 297 298 298 299 299 299 299 299 299 300 300 301 302 303 304 305 305 307 308 310 311 313 315 316 317 319 319 319 321 323 324 325 325 325 325 326 326 326 326 326 325 325 325 325 326 325 325 326 326
299 299 298 298 298 298 298 297 297 297 297 297 297 297 297 297 296 296 296 296 296 296 296 296 297 297 297 297 297 296 296 296 296 296 296 296 297 297 298 298 298 299 298 298 298 299 299 300 301 302 302 303 304 305 306 308 310 312 314 316 317 318 320 320 320 321 323 325 325 325 325 325 325 326 326 326 326 326 325 325 325 325 323 322 323
298 298 297 297 297 297 297 297 297 297 297 297 297 297 296 296 296 296 296 296 296 296 296 296 296 296 296 296 296 296 296 296 296 296 296 296 297 297 297 298 298 298 298 298 298 298 298 299 300 301 301 302 302 303 305 306 308 310 312 315 316 318 320 321 321 322 323 324 324 325 325 325 325 325 325 326 325 325 325 325 325 325 323 321 323
297 297 297 297 297 296 296 296 296 296 296 296 296 296 296 296 296 296 296 295 295 295 295 296 296 296 295 295 295 295 295 295 295 295 295 296 296 296 297 297 297 298 298 298 298 298 298 299 300 300 301 301 301 302 304 305 307 309 311 313 314 316 319 320 321 322 323 323 324 324 324 325 325 325 324 324 324 324 325 325 324 324 324 324 324
297 296 296 296 296 296 296 296 296 295 295 295 295 295 295 295 295 295 295 295 295 295 295 295 295 295 295 295 295 295 295 295 295 295 295 295 296 296 296 297 297 297 298 298 298 298 299 299 299 299 300 300 301 302 303 305 306 307 308 310 311 313 317 318 318 319 321 323 323 323 323 324 325 325 324 324 324 324 324 324 324 323 323 323 323
296 296 296 296 295 295 295 295 295 295 295 295 295 295 295 295 295 295 295 295 295 295 295 295 295 294 294 294 294 294 294 295 295 295 295 295 295 296 296 297 297 297 297 297 298 298 299 299 299 299 299 300 301 302 303 304 305 305 306 308 309 311 313 314 314 316 318 320 321 322 322 324 324 325 325 324 324 324 323 323 323 323 323 323 323
295 295 295 295 295 295 295 294 294 294 294 294 294 294 295 295 295 294 294 294 294 294 294 294 294 294 294 294 294 294 294 294 295 295 295 295 295 296 296 297 297 297 297 297 297 298 298 299 299 299 299 300 300 301 302 303 303 303 304 305 307 308 309 309 310 312 314 317 319 320 321 323 323 323 324 324 324 323 323 322 322 322 322 323 323
295 295 294 294 294 294 294 294 294 294 294 294 294 294 294 294 294 294 294 294 294 294 294 294 293 294 293 294 294 294 294 294 295 295 295 296 296 296 296 297 297 297 297 297 297 297 298 298 298 299 299 300 300 301 301 302 302 302 302 303 303 305 306 307 307 308 310 312 315 317 319 320 321 321 321 321 322 322 322 322 321 321 321 321 322
294 294 294 294 294 294 294 294 294 294 294 294 294 294 293 293 293 293 293 293 293 293 293 293 293 293 293 293 294 294 294 294 295 295 295 296 296 296 296 297 297 297 297 297 297 297 297 298 298 298 299 300 300 300 300 301 301 301 301 302 302 304 305 306 306 306 307 308 310 314 317 318 318 318 318 318 318 319 320 320 320 320 320 320 320
294 294 294 294 294 294 294 293 293 293 293 293 293 293 293 293 293 293 293 293 293 293 293 293 293 293 293 293 293 294 294 294 295 295 295 296 296 296 296 296 297 297 296 296 296 297 297 297 298 298 298 299 299 300 300 300 300 301 301 301 302 303 304 305 304 305 305 305 307 310 313 314 315 315 314 314 315 316 317 318 319 319 320 320 320
294 294 294 294 293 293 293 293 293 293 292 292 293 292 292 293 293 293 293 293 293 293 293 293 293 293 293 293 293 293 294 294 294 295 295 296 296 296 296 296 296 296 296 296 296 296 296 297 297 297 298 298 299 299 299 300 300 300 300 301 302 302 303 303 303 304 304 303 304 306 309 310 311 311 312 312 313 313 314 315 316 317 318 318 319
294 294 294 294 293 293 293 292 292 292 292 292 292 292 292 293 293 293 293 293 293 293 293 293 293 293 293 293 293 293 293 294 294 295 295 295 295 296 296 296 296 296 296 296 296 296 296 296 297 297 297 298 298 298 299 299 299 300 300 300 301 301 301 302 302 302 303 303 303 303 305 306 307 308 309 309 310 311 312 312 313 314 315 315 315
294 294 294 294 293 293 293 292 292 292 292 293 293 293 293 293 293 293 293 293 293 293 293 292 292 292 292 293 293 293 293 294 294 294 295 295 295 295 295 296 296 296 296 296 296 296 296 296 296 296 297 297 297 298 298 299 299 299 299 300 300 300 301 301 301 301 302 302 302 302 303 304 305 305 306 307 307 308 309 310 311 312 312 312 313
294 294 294 294 293 293 293 293 293 293 293 293 293 293 293 293 293 293 293 293 293 293 293 292 292 292 292 292 292 293 293 293 294 294 294 294 294 295 295 295 296 296 296 296 296 296 296 296 296 296 296 296 296 297 297 298 298 299 299 299 299 299 299 300 300 301 301 301 301 301 302 303 303 304 304 305 306 307 307 308 309 310 310 311 312
294 294 294 294 294 293 293 293 293 293 293 293 294 294 294 293 293 293 293 293 293 293 293 292 292 291 291 291 292 293 293 293 293 294 294 294 294 294 294 295 295 296 296 296 296 296 296 296 296 296 296 296 296 296 296 297 298 298 298 299 299 299 299 299 299 299 300 300 300 301 301 302 303 303 304 304 304 305 306 306 307 307 308 309 310
294 294 294 294 294 294 294 294 294 294 294 294 294 294 294 294 294 294 293 293 293 293 293 293 292 291 291 291 291 292 293 293 293 293 294 294 294 294 294 294 294 295 295 296 296 296 296 296 296 296 295 295 295 295 295 296 296 297 298 298 298 298 298 298 299 299 299 299 300 300 301 301 302 302 302 303 303 303 304 305 306 306 306 307 307
294 294 294 294 294 294 294 294 294 294 294 294 294 294 294 294 294 294 294 293 293 293 293 293 293 292 292 291 291 291 292 293 293 293 293 294 294 294 294 294 294 294 294 295 295 295 295 295 295 295 294 294 293 294 294 294 294 295 296 297 298 298 298 298 298 299 298 299 299 299 300 300 301 301 301 301 302 302 303 303 304 304 304 305 304
295 295 295 294 294 295 295 295 295 295 295 295 295 295 294 294 294 294 294 294 294 294 293 293 293 293 292 292 291 291 291 292 293 293 293 293 293 294 294 294 294 294 294 295 295 295 294 294 294 294 294 293 293 293 293 293 293 294 294 295 296 298 298 299 299 298 298 298 299 299 299 299 300 300 300 300 300 301 301 302 302 302 302 302 302
295 295 295 295 295 295 295 295 295 295 295 295 295 295 295 295 295 295 295 295 295 295 294 294 293 293 293 293 292 291 291 291 292 293 293 293 293 293 294 294 294 294 295 295 294 294 293 293 293 293 293 293 293 293 293 293 293 293 293 294 295 296 297 298 298 299 299 298 298 298 299 299 299 299 299 300 300 300 300 300 301 301 301 301 300
295 295 295 295 295 295 295 295 295 295 295 295 295 295 296 296 295 295 295 295 295 295 295 295 294 294 293 293 292 292 291 290 291 292 293 293 293 293 293 294 294 294 295 295 294 293 293 292 292 292 292 293 293 292 293 293 292 292 293 293 293 294 294 295 296 298 298 298 298 298 298 299 299 299 299 299 300 300 299 299 299 299 299 299 299
295 295 295 295 295 295 295 295 295 295 295 295 295 295 295 296 296 296 296 296 296 296 295 295 295 294 294 293 292 292 292 291 290 291 292 292 293 293 293 293 294 294 294 295 294 293 293 292 292 292 292 292 292 292 292 292 292 292 292 292 293 293 293 293 295 296 297 298 298 298 298 298 298 298 299 299 299 299 299 299 299 299 299 299 299
296 296 296 296 295 295 295 295 295 295 295 295 295 295 295 295 296 296 296 296 296 296 296 295 295 295 294 294 293 292 292 291 291 290 291 292 292 293 293 293 293 293 294 294 294 293 292 291 291 291 291 292 292 292 292 292 292 292 292 292 292 293 293 293 294 294 295 296 297 298 298 298 298 298 298 298 298 298 298 299 299 299 299 299 299
296 296 296 296 296 295 295 295 296 296 296 296 296 295 295 295 295 296 296 296 296 296 296 296 295 295 294 294 293 292 292 292 291 291 290 291 291 292 292 293 293 293 293 294 294 293 292 291 290 290 290 291 291 291 291 292 292 292 292 292 292 292 292 293 293 293 294 295 295 296 297 297 297 298 298 298 298 298 298 298 298 299 299 299 299
296 297 297 296 296 296 295 295 296 296 296 296 296 296 295 295 295 295 295 295 295 295 296 296 295 295 294 294 293 292 291 291 291 292 291 290 290 291 291 292 293 293 293 293 294 293 292 290 290 289 290 290 290 290 290 291 291 292 292 292 292 292 292 292 293 293 293 293 294 294 295 296 296 297 297 297 297 297 297 297 298 298 298 298 298
297 297 297 297 296 296 296 295 296 296 296 297 296 296 295 295 295 295 295 294 294 295 295 295 295 295 295 294 293 293 292 291 291 291 291 291 290 290 291 291 292 292 293 293 293 292 291 290 289 290 290 290 290 290 290 290 291 291 291 291 291 291 291 291 292 292 293 293 293 293 294 294 295 295 296 296 296 296 296 297 297 297 297 297 297
297 297 297 297 297 297 296 296 296 296 296 297 296 296 295 295 295 295 295 294 294 294 294 294 294 295 295 294 293 292 292 291 291 291 291 291 291 291 290 290 290 291 291 291 291 290 290 290 290 290 290 290 290 290 290 290 290 290 290 290 290 291 291 291 291 291 292 292 293 293 293 293 293 294 295 295 295 295 295 295 296 296 296 297 297
297 297 297 297 297 297 297 296 296 296 296 296 296 296 295 295 295 295 295 295 295 294 293 293 294 294 294 293 292 292 292 292 291 291 291 291 291 291 291 290 290 290 290 290 290 290 290 289 289 289 289 289 289 289 289 289 289 289 289 290 290 290 290 290 290 290 290 291 292 292 293 293 293 293 294 294 295 295 295 295 295 295 295 295 296
297 297 297 297 297 297 297 297 296 296 296 296 296 296 296 295 295 295 295 295 295 295 294 293 293 293 293 292 292 292 293 292 292 291 291 291 291 291 291 291 290 290 290 290 290 289 289 289 289 289 289 289 289 289 289 289 289 289 288 288 289 289 289 289 289 289 290 290 290 291 292 293 293 293 293 293 294 294 295 294 294 294 294 294 295
297 297 297 297 297 297 297 297 297 296 296 296 296 296 296 295 295 295 294 294 295 295 294 294 293 292 292 292 292 292 292 292 292 291 292 291 291 291 291 292 291 291 290 290 290 289 289 289 289 289 289 289 289 289 289 289 289 288 288 288 288 288 288 288 288 288 289 289 289 290 290 292 292 293 292 293 293 293 294 294 294 294 294 294 294
297 297 297 297 297 297 297 297 297 296 296 296 296 296 296 295 295 294 294 294 294 294 294 294 293 292 291 291 291 291 291 292 291 291 291 291 291 291 291 291 292 292 291 291 290 290 290 290 289 289 289 289 289 289 289 288 288 288 288 288 288 288 288 288 288 288 288 288 288 288 289 290 291 292 292 293 292 293 293 293 294 294 294 294 294
297 297 297 297 296 296 296 296 296 296 296 295 295 295 295 295 294 294 294 294 294 294 294 294 293 292 291 290 290 290 290 291 291 291 291 291 291 291 291 291 291 292 292 292 291 291 291 290 290 289 289 289 289 289 289 289 289 289 288 288 288 288 288 287 288 288 288 287 287 288 288 288 289 291 291 292 292 292 292 293 293 293 293 293 294
297 297 297 296 296 296 296 296 296 296 295 295 294 295 295 295 294 294 294 293 293 293 293 293 293 292 291 290 290 290 290 290 290 290 290 290 290 291 291 291 291 291 292 292 292 292 292 292 291 290 290 289 290 290 290 290 290 290 289 289 289 288 288 288 287 287 287 287 287 287 287 287 288 289 290 291 291 292 292 292 292 292 293 293 293
297 297 297 296 296 296 295 295 295 295 295 294 294 295 295 295 295 294 294 294 293 292 292 292 292 291 291 290 290 290 291 290 290 290 290 290 290 290 290 290 291 291 291 292 292 292 292 292 292 291 291 290 291 291 291 291 291 291 290 290 290 290 289 289 288 288 287 287 287 287 287 287 287 287 288 289 289 290 290 291 291 291 292 292 293
297 297 297 296 296 296 295 295 295 295 295 295 295 295 295 295 295 295 295 295 294 293 292 292 291 291 291 291 291 291 291 291 291 291 290 290 290 290 290 290 290 290 291 291 292 292 292 292 293 292 292 291 291 291 291 291 291 291 291 291 291 291 290 290 290 289 289 288 287 287 287 287 287 287 287 287 288 288 289 289 289 289 290 291 292
298 297 297 297 296 296 295 295 294 295 295 295 295 295 295 295 295 295 295 295 295 294 294 293 292 291 291 291 291 291 291 291 291 291 291 290 291 291 291 290 290 290 290 290 291 292 292 292 293 293 293 292 292 292 292 292 291 291 291 291 291 291 291 291 290 290 290 289 289 288 287 287 287 287 287 287 287 287 287 287 288 288 288 289 290
298 298 297 297 296 296 296 295 295 295 295 296 295 295 295 295 295 295 295 295 295 294 294 294 293 293 292 291 291 291 291 291 291 291 291 290 290 290 291 291 290 290 290 290 290 291 291 292 292 292 293 293 293 293 293 293 292 292 292 292 292 292 292 291 291 290 290 290 289 289 289 288 287 287 287 287 287 287 286 286 286 287 287 287 288
298 298 297 297 296 296 296 296 296 296 296 296 296 296 296 296 296 295 295 295 295 295 294 294 294 294 293 292 291 291 291 292 292 292 291 291 291 291 290 290 291 291 291 290 290 290 290 291 291 292 292 292 292 292 293 293 293 292 292 292 292 292 292 292 292 291 291 290 289 289 289 289 289 288 287 287 287 286 286 286 286 286 286 286 287
298 298 297 297 297 296 296 296 296 296 296 296 296 296 296 296 296 296 295 295 295 295 295 294 294 294 294 293 293 293 293 293 293 293 293 292 292 292 291 291 290 291 291 291 290 290 290 290 290 291 291 292 292 292 292 292 292 292 292 292 292 292 292 291 291 291 291 291 290 290 289 289 289 289 289 288 288 287 287 286 286 286 286 285 286
298 297 297 297 297 296 296 296 296 296 296 296 296 296 296 296 296 296 296 296 295 295 295 295 295 295 295 294 294 294 294 294 294 294 294 293 293 293 292 292 291 290 290 290 291 290 290 290 290 290 290 291 291 292 292 292 292 292 292 292 292 292 292 292 292 291 291 291 291 291 290 289 289 289 289 289 289 289 288 287 287 286 286 286 285
Wind_Speed
6 6 5 6 6 7 8 8 9 10 10 11 11 11 12 12 13 14 14 14 15 16 17 17 18 19 19 20 20 21 21 22 22 22 22 22 22 21 21 21 20 20 20 20 20 20 21 21 21 21 21 24 25 22 20 21 22 23 25 25 25 25 25 25 29 32 32 33 35 36 34 31 30 31 33 33 33 33 36 41 43 42 39 38 38
7 7 7 7 7 8 9 10 10 10 10 10 11 11 12 13 14 14 14 15 16 16 17 18 18 19 19 20 20 21 21 22 23 23 23 23 23 24 23 23 22 21 20 20 21 21 22 22 21 21 21 22 23 23 22 20 20 22 24 25 26 26 26 26 28 31 32 31 32 34 34 32 30 30 31 32 32 32 33 37 42 44 41 40 40
8 8 7 8 9 9 9 10 10 9 10 10 11 12 12 13 14 14 15 16 16 17 17 17 18 18 19 20 21 22 23 23 24 24 24 24 25 26 26 25 25 25 23 22 22 22 23 23 23 22 22 22 22 22 22 20 19 21 23 24 25 26 27 26 27 30 31 30 30 32 32 32 32 30 30 30 29 30 32 34 39 44 43 42 42
8 8 8 9 9 9 9 9 9 9 10 11 11 12 13 13 14 15 15 16 17 17 17 18 19 20 21 22 23 24 25 25 24 24 25 26 26 27 27 27 28 28 27 26 25 25 25 26 26 26 25 24 23 22 22 22 21 22 23 23 23 25 26 26 27 28 29 29 30 32 31 31 33 33 30 30 30 30 30 32 36 40 41 42 44
7 8 8 8 8 8 8 9 9 10 10 11 12 12 13 14 14 15 16 17 17 18 18 19 21 22 23 24 25 26 26 26 26 26 27 27 28 28 29 29 29 29 28 28 27 27 27 27 27 27 27 27 26 25 25 25 24 24 25 24 24 24 24 26 27 27 28 29 29 30 30 29 31 32 30 30 31 30 30 32 34 35 36 40 44
7 7 8 8 8 8 8 9 9 10 10 11 12 13 13 14 15 16 17 18 19 19 21 22 22 24 25 25 26 26 27 27 28 29 29 29 29 29 29 29 29 28 27 26 26 26 26 26 26 27 27 28 28 27 28 27 27 27 27 27 26 26 25 25 26 27 28 29 28 29 32 30 29 29 30 31 31 31 31 32 33 33 36 40 43
7 7 7 8 8 8 9 10 10 10 11 12 13 13 14 15 16 18 18 19 20 21 22 23 24 24 25 25 26 27 28 29 30 30 30 29 29 28 27 27 27 26 25 25 25 25 25 25 26 26 27 27 28 28 28 28 29 29 29 29 29 29 27 26 25 26 28 29 28 28 31 31 29 29 31 31 32 33 32 33 35 35 35 38 41
6 7 7 7 8 10 10 11 11 11 12 13 13 14 16 17 18 18 19 20 21 22 23 24 24 25 25 26 27 28 30 31 32 32 31 30 29 27 26 25 25 24 24 24 24 24 24 25 25 25 25 25 25 26 26 27 29 30 30 30 31 31 31 29 26 26 27 28 28 28 30 30 28 29 31 31 33 35 34 33 35 36 36 38 40
5 6 7 8 10 11 12 12 12 12 12 13 14 16 17 18 18 19 20 21 22 23 23 24 25 25 26 27 28 29 30 32 32 32 31 31 30 28 26 25 24 24 23 23 23 23 24 24 23 23 24 24 24 24 24 24 27 29 30 31 31 32 32 31 29 27 27 28 29 29 30 31 29 28 30 33 34 34 33 33 35 35 35 37 40
5 6 8 10 12 12 12 12 12 12 13 14 16 17 17 18 19 20 21 22 23 23 24 24 25 26 27 27 28 29 31 31 30 30 30 30 29 28 27 26 25 25 25 25 24 24 24 24 24 23 24 25 25 24 23 23 24 26 27 29 31 32 33 32 31 28 27 28 29 29 29 32 32 29 29 31 33 33 31 34 37 36 35 36 38
6 8 10 11 12 13 13 12 12 13 14 15 16 17 17 18 19 20 21 22 23 23 24 25 25 26 27 27 28 29 30 30 30 30 30 30 29 29 28 28 27 28 28 28 27 27 26 26 26 26 27 27 28 27 25 24 24 25 26 26 28 30 31 33 32 30 28 28 28 28 28 30 32 31 29 29 32 33 32 33 36 36 36 36 37
7 9 11 12 12 12 12 12 12 13 15 16 16 17 17 18 19 21 22 22 23 23 24 25 25 25 26 27 28 29 29 29 29 30 30 30 29 29 29 30 30 30 30 30 30 31 30 29 29 29 30 31 31 30 29 27 25 25 26 26 26 26 28 31 32 32 30 29 28 28 27 28 28 30 30 28 29 32 33 34 35 35 36 37 37
9 11 12 12 12 12 12 12 12 14 15 15 16 16 17 18 20 21 21 21 22 23 23 24 24 25 26 27 28 28 29 29 29 30 30 30 30 30 32 32 33 33 33 32 32 33 33 33 33 33 34 34 34 33 32 31 28 26 25 26 26 24 24 27 30 31 31 30 31 31 28 26 26 27 28 26 26 29 32 34 34 33 34 36 36
10 11 12 12 12 12 12 12 13 14 15 15 15 15 16 18 19 19 20 20 21 22 22 23 24 25 26 26 27 28 28 29 29 30 30 31 31 33 34 35 35 35 34 34 33 34 35 36 37 37 38 38 38 38 36 34 32 29 27 25 25 25 23 23 25 27 28 30 32 32 29 26 26 25 25 26 26 28 31 34 33 32 32 33 33
11 11 12 12 13 12 12 12 13 14 14 14 14 15 16 17 17 18 18 19 21 21 22 22 23 24 25 25 26 27 29 29 29 31 32 32 33 35 36 37 37 37 36 36 35 34 35 36 36 37 39 40 41 41 40 37 35 32 29 27 26 26 22 20 21 23 25 28 29 29 28 27 26 26 27 27 27 26 26 29 31 32 32 33 34
11 11 12 13 13 13 13 13 14 14 14 14 14 15 15 16 16 17 18 19 20 20 21 22 22 23 24 25 26 27 28 29 30 32 33 34 35 36 38 38 39 39 38 37 36 34 33 33 34 35 37 39 40 42 41 39 36 33 31 29 29 26 20 17 18 20 22 24 24 23 23 24 24 25 28 29 29 27 26 27 29 30 32 34 36
12 12 13 14 14 14 13 13 14 14 14 14 14 15 14 15 15 16 17 18 19 19 20 21 22 22 23 24 26 27 28 30 31 33 34 35 36 38 39 39 39 39 39 38 36 34 32 31 32 33 35 36 38 40 40 38 35 33 32 30 29 24 18 14 14 16 19 21 22 21 20 20 20 21 24 27 28 27 26 27 28 29 31 34 36
13 14 14 15 15 14 14 14 14 14 14 15 15 15 15 15 16 16 17 17 18 18 19 20 20 22 23 24 25 26 28 30 32 33 34 35 36 38 38 38 39 39 39 38 38 37 34 32 32 33 33 34 34 36 37 36 33 31 31 29 27 23 17 13 11 11 13 17 20 19 18 19 19 18 20 23 26 25 24 25 25 27 30 32 33
15 15 16 16 15 15 15 15 15 15 15 16 16 16 17 17 17 16 16 17 17 17 18 18 20 21 22 23 24 25 28 30 31 32 33 34 35 36 37 37 38 39 39 40 40 39 38 37 35 34 33 32 32 32 33 32 29 28 28 27 27 24 21 17 12 8 6 8 11 13 13 14 16 16 16 18 21 23 24 23 24 26 28 30 30
17 17 17 17 17 16 16 15 16 17 17 18 18 18 18 17 16 16 16 16 16 16 17 18 20 22 22 23 24 26 27 29 30 31 32 32 34 35 36 36 37 37 38 39 40 40 40 39 37 35 33 32 31 30 30 30 27 26 26 27 27 24 19 15 13 11 7 3 2 5 6 6 6 7 7 8 10 12 16 18 20 23 26 27 29
19 19 19 18 18 17 17 17 18 19 19 19 19 18 18 17 16 16 17 17 17 17 19 20 21 23 23 24 25 26 27 29 30 30 31 31 33 34 34 35 35 35 36 37 38 39 39 39 38 36 35 33 31 30 29 29 27 26 26 27 25 21 17 15 16 17 16 15 13 10 8 7 5 5 5 4 3 3 5 8 12 17 22 25 27
21 20 20 20 19 19 19 20 20 21 20 20 19 19 19 18 18 19 19 19 20 20 21 22 23 24 24 25 25 26 27 29 29 30 30 30 31 32 32 32 33 33 34 35 36 37 38 38 37 37 36 35 33 32 30 30 29 28 27 25 23 21 20 21 23 24 25 25 24 20 17 14 13 13 12 12 10 9 6 4 4 7 13 19 23
22 21 21 21 21 21 21 21 21 21 21 20 21 21 21 21 21 21 21 22 23 23 24 24 25 25 25 26 26 27 27 28 28 28 28 28 29 30 30 30 31 32 32 33 34 35 36 36 36 37 38 37 37 36 34 33 33 31 28 27 26 25 24 25 27 29 31 32 33 30 26 22 20 18 17 16 15 13 11 8 5 3 2 6 12
22 22 22 22 22 22 22 22 22 21 21 21 21 22 22 22 22 22 22 23 23 24 25 25 26 26 27 27 27 27 27 27 27 27 27 27 27 28 28 29 29 30 31 31 32 33 34 35 35 36 37 38 39 39 37 36 35 34 33 31 30 30 29 30 31 32 33 35 36 35 33 29 27 24 23 21 19 17 14 12 10 8 7 6 5
22 22 22 22 22 22 23 22 22 21 21 21 21 21 21 21 21 21 22 23 24 25 26 26 27 28 28 27 27 27 27 26 26 26 26 26 26 27 27 27 28 29 30 30 30 31 32 33 35 36 37 38 39 40 40 39 38 38 37 35 34 33 33 33 33 33 34 34 33 32 32 31 30 29 26 24 23 21 19 17 15 12 10 9 8
22 22 22 22 22 22 22 21 21 21 20 20 20 19 19 20 20 20 21 22 24 25 26 27 28 28 28 28 27 27 26 26 26 26 26 26 27 27 27 27 27 27 28 28 29 30 31 32 35 37 38 39 40 40 40 41 41 41 41 39 38 36 34 34 35 35 35 33 30 28 27 27 29 29 29 28 28 26 24 22 19 17 15 13 10
23 22 21 21 21 21 21 21 20 19 19 18 18 18 18 18 19 19 20 21 23 24 25 26 27 28 28 28 27 27 26 25 26 26 26 26 27 27 27 27 27 27 27 27 29 30 32 33 34 36 37 39 40 41 41 41 42 44 44 43 40 37 36 36 37 38 37 36 33 29 25 23 24 26 28 29 29 29 27 25 23 21 18 15 14
22 21 21 20 20 20 20 20 19 18 18 17 17 17 17 17 18 19 20 21 22 23 24 25 26 27 28 28 27 27 26 24 24 24 24 24 25 26 27 28 28 28 28 28 29 30 32 33 35 37 39 41 42 43 43 43 44 45 46 45 42 39 38 39 41 42 42 40 39 36 32 28 25 25 26 27 28 28 26 25 24 23 21 19 20
21 21 20 19 19 19 19 18 18 17 17 16 16 16 16 17 18 19 20 21 22 22 24 24 25 26 27 27 27 27 26 24 22 21 20 21 22 24 25 26 27 27 27 27 28 30 32 34 36 38 41 42 44 45 45 45 45 46 46 46 43 40 39 40 41 42 43 42 42 42 41 38 34 30 27 27 27 26 26 26 26 25 24 24 24
20 19 19 18 18 18 18 17 17 16 16 16 15 15 15 16 16 17 18 19 20 21 22 23 23 24 25 25 26 25 24 23 21 19 18 18 19 20 21 22 24 25 25 26 29 31 33 35 37 38 39 40 41 43 44 45 45 45 46 46 45 43 40 39 39 39 40 41 42 42 42 42 41 38 35 32 29 27 27 28 28 27 27 27 26
20 19 18 18 17 17 17 16 16 15 15 14 14 14 14 14 15 16 16 17 18 19 20 21 21 22 23 23 23 23 22 22 21 19 19 18 17 18 19 20 22 23 24 26 29 32 33 35 35 36 36 37 38 39 41 42 43 43 44 44 44 44 43 41 39 37 37 38 39 39 40 41 41 41 40 38 35 33 31 29 28 28 28 27 26
20 19 18 18 17 17 16 15 15 14 13 13 13 13 12 12 12 13 14 15 16 17 18 18 19 19 20 21 21 21 21 21 21 20 19 18 18 17 17 18 21 22 22 25 29 31 32 33 33 33 34 34 35 36 37 38 39 40 41 42 42 42 43 42 40 38 36 36 36 36 37 38 38 39 39 39 40 40 37 34 31 29 27 27 26
19 19 18 17 17 16 16 15 14 13 12 11 10 10 10 9 9 10 11 12 13 14 15 16 16 17 18 19 19 20 20 20 20 19 19 19 18 17 16 17 19 20 22 26 29 31 31 31 30 30 31 31 32 32 33 34 35 36 38 39 39 38 39 39 38 38 37 36 35 34 34 35 36 37 38 38 40 41 39 36 34 32 31 30 29
18 17 16 16 15 15 15 14 13 12 11 10 9 8 8 7 7 8 7 8 9 11 12 13 14 14 16 17 18 18 18 18 19 19 18 18 18 17 16 17 19 20 23 26 28 29 30 30 29 28 28 28 28 29 30 31 32 33 34 35 35 35 35 35 36 37 37 36 35 34 33 33 34 36 37 37 38 40 39 36 35 34 33 32 32
16 15 15 14 13 12 12 12 12 11 9 8 7 6 6 5 6 6 5 5 6 7 9 10 11 12 13 15 16 17 17 17 17 17 18 18 17 17 18 19 21 22 24 25 26 27 28 28 28 28 27 27 27 27 28 28 29 30 31 31 32 32 33 33 34 34 35 35 34 34 33 32 32 34 35 34 35 37 37 36 35 34 33 33 33
16 15 13 12 11 11 10 10 10 9 7 6 5 5 4 4 4 4 5 5 5 6 6 7 9 10 12 13 14 15 16 16 16 16 17 17 17 18 19 21 22 22 22 23 24 24 25 26 26 26 26 26 26 26 26 26 26 26 27 28 28 29 30 31 30 30 31 32 32 32 32 32 31 31 32 33 33 33 34 34 34 33 33 34 34
16 14 13 11 10 9 8 8 8 7 6 5 4 3 3 3 3 4 5 5 6 5 5 5 7 8 9 11 12 13 14 15 15 15 16 16 17 18 20 20 20 21 21 21 22 22 23 24 24 25 25 25 25 25 25 25 25 24 25 25 25 26 26 27 27 27 28 29 30 30 30 30 30 30 30 31 31 30 31 31 31 31 31 31 31
14 13 12 11 9 8 7 7 6 6 5 4 3 2 1 1 2 3 4 5 6 6 5 5 5 6 7 9 10 11 12 13 14 15 15 15 16 17 18 19 19 19 20 20 20 21 21 22 22 23 23 23 23 24 24 24 24 23 24 24 24 23 24 24 24 25 26 26 27 27 28 28 28 28 28 29 29 28 28 28 28 28 28 28 28
13 12 11 10 9 8 7 6 6 5 5 4 3 3 2 1 0 1 2 4 5 6 7 6 5 5 6 8 9 10 11 12 13 14 15 15 16 16 17 17 17 18 18 18 19 19 20 20 20 21 21 22 22 22 22 23 23 23 23 23 23 23 23 23 24 24 24 24 24 24 25 26 26 26 26 26 26 26 26 26 26 26 26 26 26
13 12 10 9 9 8 8 7 6 6 6 5 4 3 3 3 2 2 2 3 4 5 7 7 6 5 6 7 8 9 10 10 11 13 14 15 15 15 15 16 16 16 17 17 17 18 18 18 19 19 20 20 21 21 21 22 22 22 23 23 22 22 22 22 22 22 22 22 22 21 21 22 23 24 24 24 24 23 23 24 24 25 25 25 24
13 12 11 10 9 9 9 8 7 7 7 6 5 5 4 4 3 3 3 4 4 5 6 6 6 6 6 7 8 9 9 9 10 11 12 13 14 14 14 14 15 15 15 16 16 16 17 17 17 18 18 19 19 20 20 21 21 22 22 22 22 22 21 21 21 21 20 20 20 20 19 19 19 21 21 21 21 21 21 21 21 22 22 23 22
13 13 12 10 9 9 10 9 8 8 7 7 6 5 5 4 4 4 4 4 4 5 5 5 6 6 6 6 7 8 8 9 9 10 11 11 12 12 13 13 13 13 14 14 15 15 15 16 16 17 17 18 18 19 19 20 21 21 21 22 22 22 21 21 21 21 20 20 19 18 17 16 16 17 17 17 18 19 18 18 18 18 18 19 19
12 11 10 10 9 9 9 9 9 9 8 7 7 6 5 4 4 4 4 5 5 4 4 4 5 6 6 6 6 7 8 8 8 9 10 10 10 10 11 12 12 12 12 13 13 14 14 15 15 16 16 17 17 18 19 19 20 21 21 21 22 21 21 21 21 21 21 20 19 18 16 15 14 13 13 14 15 15 15 16 16 16 16 15 15
12 10 10 9 8 8 9 10 10 10 8 8 8 7 6 4 4 4 4 5 5 5 4 3 4 5 5 5 6 6 7 7 8 8 9 9 10 9 9 10 10 10 11 11 11 12 12 13 14 14 15 15 16 16 17 18 19 20 21 21 22 22 22 22 22 21 21 20 19 18 17 15 13 12 11 11 11 11 12 13 13 13 13 13 12
12 11 10 9 8 8 8 10 11 10 9 8 8 8 7 6 5 5 4 4 5 5 4 3 3 3 4 4 5 5 6 6 7 8 8 9 9 9 9 9 9 9 9 9 9 9 10 11 12 12 13 13 13 14 15 16 17 18 19 20 21 22 22 22 22 21 21 20 20 19 18 16 15 13 11 10 10 9 10 10 9 9 10 10 10
12 12 11 10 9 7 7 9 11 11 10 9 9 8 8 8 7 7 6 6 6 5 5 4 3 3 3 4 4 5 6 6 7 7 8 8 9 9 9 9 9 8 8 8 8 8 8 8 9 10 10 10 11 11 12 13 14 15 16 17 18 19 20 20 21 21 21 20 20 19 18 17 16 15 13 12 11 9 9 8 8 8 7 7 6
13 13 12 11 10 9 8 9 11 12 11 10 10 10 10 10 9 9 8 8 7 7 7 6 5 5 5 5 5 5 6 6 7 7 8 8 9 9 9 9 9 9 9 8 8 8 8 8 8 8 8 8 9 9 10 11 11 12 13 14 15 16 17 18 19 19 20 20 19 18 18 17 16 15 14 13 12 10 9 9 8 8 7 6 4
14 14 13 13 12 11 10 9 11 11 11 11 11 11 11 11 11 11 10 10 10 9 9 9 8 7 7 7 7 7 7 8 8 8 8 9 9 10 10 10 10 10 9 9 9 9 9 8 8 8 8 8 8 8 9 9 10 10 10 11 12 13 14 15 16 17 17 17 18 17 17 16 16 15 14 13 12 12 11 10 9 8 7 6 5
16 15 14 14 14 13 12 11 11 11 11 11 12 12 11 12 12 12 12 12 12 12 11 11 10 10 9 9 9 8 8 8 9 9 10 10 10 10 11 11 11 11 11 10 10 10 10 10 9 8 8 7 8 8 8 9 9 10 10 10 11 11 12 13 13 14 14 15 15 16 16 16 15 15 14 13 12 12 11 10 10 9 7 6 5
17 16 16 15 14 13 13 12 12 12 12 13 13 14 14 14 13 13 13 13 13 12 12 12 11 11 11 10 10 10 10 10 10 10 10 11 11 12 12 12 12 12 12 12 12 12 12 11 11 10 9 9 8 8 8 9 9 9 10 10 11 11 11 12 12 12 13 13 13 13 14 14 14 14 14 13 12 12 11 10 10 9 8 7 5
18 17 17 16 16 15 14 14 14 14 14 14 15 15 15 15 15 14 14 14 14 13 13 13 13 12 12 12 12 12 12 12 12 12 12 12 12 13 13 13 13 13 14 14 13 13 13 13 13 13 12 11 11 10 10 10 10 10 10 11 11 11 11 11 11 11 11 12 12 12 12 12 12 12 12 12 12 12 11 11 10 10 9 8 6
Wind_Direction
23 27 40 55 68 76 72 62 53 44 37 32 28 27 25 21 20 19 16 14 14 12 10 8 7 4 1 358 356 356 355 355 354 353 352 351 350 349 347 345 341 337 333 330 328 325 320 317 312 305 299 298 301 302 294 286 288 288 283 280 280 277 273 273 275 276 277 275 274 272 266 262 255 242 237 238 239 242 240 234 231 227 223 222 221
25 38 56 71 79 77 67 59 52 44 38 33 29 26 23 20 20 17 14 13 13 11 8 7 5 2 0 358 357 358 358 358 357 356 354 353 352 351 350 349 347 343 338 333 330 328 325 323 320 314 307 299 298 300 301 296 291 292 291 286 283 282 276 275 278 280 281 279 275 272 267 262 254 241 236 238 237 239 241 238 235 230 224 223 222
32 50 71 83 82 75 65 57 50 42 37 33 29 27 23 21 19 16 15 14 13 12 11 10 8 5 4 3 3 3 3 2 1 359 358 357 355 354 353 352 351 350 348 343 338 335 333 331 330 328 323 314 305 300 299 297 289 287 292 292 289 287 282 278 278 279 279 278 277 274 267 261 255 244 237 239 241 240 241 239 237 234 228 224 224
40 62 81 88 82 73 64 56 48 42 38 35 32 29 25 23 20 18 18 17 17 17 16 15 13 12 11 10 10 9 8 7 6 5 4 2 360 359 357 356 355 354 353 352 349 346 344 340 337 336 333 329 322 312 301 293 285 282 286 290 292 292 289 283 279 278 278 277 275 274 269 261 256 251 244 243 244 243 241 239 237 236 232 226 225
48 72 84 86 82 72 64 57 49 44 41 38 35 32 29 26 24 23 23 23 23 22 22 21 20 19 18 17 16 14 12 11 9 9 9 7 5 3 1 0 359 359 358 356 354 351 348 346 343 340 337 333 328 323 313 301 290 282 280 283 287 290 291 287 281 278 278 275 273 273 272 264 258 255 247 244 245 242 240 241 240 236 232 229 226
56 78 87 85 82 75 66 60 53 48 45 43 40 36 34 31 30 30 30 29 28 27 27 27 26 26 25 24 22 19 17 15 14 12 10 8 8 6 5 3 1 1 360 356 354 352 349 346 343 340 337 332 329 326 322 315 305 292 283 279 279 282 284 285 281 277 277 277 275 271 268 263 258 253 244 240 243 241 238 241 242 237 234 232 229
71 87 92 88 83 76 69 62 57 54 51 49 45 41 39 37 37 37 35 33 32 31 30 30 31 31 30 29 27 24 21 19 18 16 13 10 8 7 5 4 1 360 358 355 354 351 349 347 343 339 335 331 328 325 322 320 314 306 296 286 281 279 279 281 282 279 277 278 276 270 265 262 260 257 249 241 243 245 243 242 240 236 234 234 233
87 93 91 88 82 75 70 67 63 61 57 54 50 48 45 43 41 40 38 37 35 34 33 33 34 33 31 30 29 27 24 22 19 16 14 13 10 7 5 3 1 359 356 355 354 351 349 346 343 340 336 331 327 322 319 318 315 311 306 296 288 283 278 276 279 279 277 277 275 271 267 262 258 257 254 248 244 245 245 243 240 236 234 233 233
95 94 91 87 81 77 76 74 70 66 63 60 56 53 50 47 45 43 41 39 38 37 36 36 35 34 33 32 30 29 27 26 21 17 14 13 11 10 8 6 3 1 359 356 355 354 351 348 344 340 336 332 327 321 317 314 311 309 307 302 294 287 281 277 274 274 274 274 274 273 269 263 257 254 251 247 245 245 245 244 241 238 237 236 235
105 99 93 86 83 82 81 78 76 72 68 64 60 56 52 49 47 45 43 42 41 39 37 37 36 36 35 34 32 32 31 29 24 19 17 14 11 11 12 10 8 7 4 0 358 356 354 351 348 344 339 334 329 324 319 313 307 304 303 301 295 288 283 278 273 270 270 270 271 271 267 262 259 257 252 249 250 250 247 245 242 238 235 236 237
111 101 93 88 86 86 85 82 79 76 71 66 62 58 54 52 50 47 46 44 42 40 39 38 37 36 36 35 34 34 34 30 26 23 21 17 14 15 15 13 12 11 8 5 3 0 357 355 353 351 348 343 337 331 325 318 310 304 300 300 296 287 280 276 273 268 267 266 266 268 269 265 263 260 257 254 254 254 250 247 245 240 235 234 234
111 102 95 93 91 89 87 85 82 78 74 68 64 61 57 55 52 49 47 44 41 40 39 37 36 36 36 35 35 35 35 32 28 26 24 20 18 20 21 18 17 14 11 10 8 5 1 358 357 355 354 351 346 339 332 325 318 309 301 298 298 291 280 273 271 268 264 264 265 265 267 269 268 265 262 259 255 254 253 249 246 243 240 237 236
111 105 101 98 95 92 89 87 85 80 75 71 68 64 60 57 53 49 46 44 41 39 38 36 35 35 36 35 35 36 35 32 30 28 26 23 21 24 26 24 22 18 14 13 11 8 5 3 1 358 356 353 350 346 341 334 327 319 308 300 299 298 285 271 268 266 262 260 262 262 262 266 269 269 271 269 259 253 252 249 245 244 243 242 242
113 109 107 101 96 94 91 89 86 81 77 74 71 66 62 58 54 50 47 43 41 40 38 37 36 36 37 36 36 36 35 33 30 29 27 24 24 27 28 27 25 21 17 16 13 10 8 6 2 359 357 355 353 350 346 342 336 330 322 311 304 304 294 274 266 265 261 258 259 260 260 262 267 269 273 273 264 255 252 249 246 245 245 250 253
117 111 107 101 96 94 92 90 87 83 80 77 72 67 62 58 54 50 46 43 41 40 38 38 38 38 38 37 37 37 36 33 31 30 28 26 26 28 28 27 25 22 20 19 17 13 10 6 2 360 357 356 353 350 347 345 342 337 333 325 316 313 305 282 266 261 261 260 261 260 257 256 259 261 264 267 265 263 261 258 255 249 245 248 250
118 111 106 101 97 95 93 92 89 86 84 79 74 69 63 59 55 50 46 44 42 41 40 39 40 40 39 38 38 38 36 33 32 31 28 26 27 28 27 26 24 23 22 21 20 16 11 6 2 360 358 355 352 349 347 347 345 343 341 337 330 323 311 288 270 262 261 261 260 259 256 254 254 256 257 260 262 264 265 262 257 251 245 242 240
117 113 107 102 100 98 95 94 90 88 85 80 76 71 66 63 58 53 48 46 43 42 42 41 40 40 40 39 38 38 36 33 32 31 29 27 27 28 27 25 24 24 23 22 21 18 14 8 4 1 360 357 353 350 348 349 349 349 347 345 340 329 310 291 282 275 268 260 256 256 255 253 253 254 255 256 256 257 258 254 250 248 245 241 238
118 115 109 105 103 100 96 94 90 89 87 83 79 76 72 67 61 56 51 48 45 44 43 42 42 42 41 40 39 38 37 34 32 31 29 28 28 28 27 26 25 25 24 23 22 20 17 13 8 4 2 0 357 354 353 352 355 357 354 351 349 342 329 322 316 298 281 267 261 259 253 249 250 251 251 252 251 249 248 249 249 247 245 244 243
120 116 110 106 103 99 96 94 92 91 89 85 82 78 73 68 63 58 54 50 49 47 46 45 44 44 43 42 41 39 38 36 33 31 30 28 28 29 28 26 27 27 25 25 24 23 20 17 13 8 5 3 2 2 2 1 4 7 5 1 1 359 351 348 355 347 308 273 261 257 249 243 246 249 250 252 252 249 248 249 248 245 245 247 247
118 113 109 105 102 99 98 96 95 92 88 85 81 77 73 69 65 61 58 56 54 51 50 49 48 47 45 43 42 41 40 38 35 32 31 29 28 29 28 27 28 29 28 27 26 25 23 21 17 12 9 7 7 8 10 12 15 18 20 20 20 13 358 355 18 36 40 61 163 210 213 219 233 243 252 258 259 257 254 253 248 244 245 247 246
116 112 108 105 103 102 101 98 95 91 87 85 82 79 77 74 70 68 66 64 61 57 55 53 52 50 47 45 45 44 42 41 37 34 32 31 29 29 29 28 30 32 31 30 29 27 26 24 21 18 16 14 13 14 15 18 22 28 34 38 38 31 19 20 40 56 64 68 77 96 109 105 99 87 71 55 26 343 284 263 251 244 244 245 243
117 113 109 108 106 105 103 99 95 92 90 88 86 84 82 79 75 74 72 69 65 61 58 56 54 52 49 47 47 47 45 44 41 37 36 34 32 31 30 29 31 34 34 34 33 31 30 28 26 24 24 23 22 22 22 22 25 30 38 44 46 45 42 42 47 54 60 62 65 74 81 80 78 74 67 62 56 46 31 354 292 259 250 249 247
119 114 111 109 107 106 104 101 98 96 94 92 89 87 84 81 77 75 72 70 66 62 60 58 55 54 52 50 49 49 48 47 44 41 40 38 35 34 33 32 33 36 38 38 37 35 33 31 29 29 29 29 29 29 28 28 28 29 32 40 47 50 51 52 52 52 55 56 57 62 64 62 59 55 49 45 44 43 43 43 37 22 318 264 257
119 114 111 109 107 107 106 104 102 100 98 95 91 87 84 80 77 74 70 67 65 62 59 58 56 55 54 52 51 49 49 49 47 44 43 41 39 36 35 34 34 37 39 41 40 39 37 35 33 32 32 33 33 34 34 34 34 32 31 34 40 44 46 47 49 50 52 52 52 54 56 57 55 50 46 43 40 38 38 40 41 41 40 35 9
121 116 112 109 108 108 107 106 104 101 98 94 89 86 83 79 76 72 68 66 64 62 60 58 56 55 53 52 51 49 49 49 47 45 43 41 40 38 36 35 34 36 39 40 40 40 38 37 36 36 35 35 35 35 36 37 37 37 35 34 35 37 39 39 39 41 45 46 45 46 49 54 56 54 52 50 49 47 44 41 40 40 38 34 27
124 120 116 112 111 109 108 108 105 101 97 93 89 85 82 78 76 72 70 67 64 62 60 58 56 54 52 51 49 47 47 47 46 43 41 38 37 36 36 36 35 35 37 37 37 37 38 38 38 37 37 37 37 36 36 37 38 38 38 37 37 38 38 39 39 39 40 41 40 39 39 46 52 54 54 53 51 49 46 43 43 42 38 34 33
128 125 121 117 114 113 111 109 106 102 97 93 88 84 80 78 76 72 70 69 66 64 61 58 56 54 51 50 48 46 45 44 43 41 38 36 35 34 34 34 35 36 35 34 34 35 36 37 38 38 38 38 39 38 37 37 37 38 38 39 41 44 46 48 49 48 47 46 45 43 40 41 45 49 51 51 51 49 47 46 48 48 46 45 48
130 129 127 123 119 117 114 111 107 103 98 93 88 84 80 76 74 71 69 67 65 63 61 58 55 53 50 49 47 46 44 42 41 39 35 32 32 32 33 34 35 36 35 35 35 36 35 35 36 37 37 37 37 38 38 38 38 39 39 40 44 48 52 54 55 54 53 52 51 49 48 47 47 47 48 48 48 49 50 53 55 57 58 60 60
132 133 132 129 125 121 117 114 109 104 99 95 90 85 81 76 73 71 68 65 63 61 59 57 54 52 49 47 46 45 44 43 41 39 36 32 31 32 34 36 37 37 35 35 37 37 36 36 36 37 37 37 37 38 39 39 39 39 40 41 44 48 51 53 53 51 51 52 52 51 51 52 53 52 51 50 50 51 55 59 61 62 62 64 67
137 137 135 133 132 127 121 118 113 107 104 99 93 88 83 78 74 71 67 65 63 60 59 56 53 51 49 46 44 44 45 44 42 39 37 34 33 33 34 36 38 37 35 35 38 39 39 40 39 40 40 39 39 40 40 40 39 39 40 41 43 46 48 50 50 49 49 51 52 52 52 53 54 54 54 54 54 55 58 62 64 65 65 66 69
142 140 137 136 135 132 128 124 119 113 109 104 98 93 86 80 75 71 67 64 61 58 56 54 52 51 49 47 45 44 44 45 43 40 36 33 32 33 33 35 37 36 34 36 39 40 41 41 41 41 42 41 41 41 41 40 40 39 40 40 42 44 46 46 46 47 48 50 51 52 53 54 55 55 55 56 58 59 60 62 63 65 66 68 70
143 141 139 137 134 132 130 126 120 116 112 106 102 97 89 82 76 69 65 62 59 56 53 50 48 47 46 46 45 44 43 43 43 42 40 36 33 31 31 34 38 37 35 39 42 42 41 41 40 40 41 41 41 41 41 41 41 40 41 41 41 42 43 44 45 46 47 49 50 51 52 54 56 57 56 57 58 60 60 60 60 62 65 67 69
144 143 141 139 136 133 129 125 119 115 110 105 102 97 92 87 78 69 63 59 56 54 51 48 45 42 41 40 42 42 41 41 41 41 42 41 38 34 32 34 37 37 37 41 43 42 41 41 40 39 39 39 40 40 41 41 41 41 42 42 41 41 43 45 46 47 47 47 48 49 50 51 54 56 57 58 59 59 58 58 59 62 65 67 68
146 143 140 139 137 136 133 129 122 115 108 103 99 95 95 92 83 74 64 55 51 49 46 43 41 39 36 35 37 39 40 39 39 39 40 42 42 41 40 41 40 39 39 41 42 41 40 39 39 38 37 37 37 38 39 39 39 40 42 43 42 42 43 45 47 48 48 48 48 48 48 49 52 54 55 57 59 60 59 59 60 62 65 66 65
151 145 140 138 138 138 138 134 127 119 111 102 93 87 89 90 83 74 65 57 53 48 42 39 36 34 33 31 33 36 38 38 38 38 38 39 41 42 44 45 43 41 40 40 40 39 38 38 38 38 38 36 35 35 36 36 37 37 39 40 41 41 43 44 45 47 49 50 49 49 49 49 51 54 55 55 57 58 59 60 61 63 66 67 65
156 151 146 142 139 140 144 143 137 130 122 112 99 84 79 82 80 69 58 54 53 48 43 38 32 28 29 29 29 32 35 35 35 35 35 36 36 38 41 43 41 40 39 39 39 38 37 37 38 39 38 38 37 36 35 35 35 35 35 36 37 39 41 43 43 46 49 50 50 51 52 51 52 54 56 56 56 57 58 60 62 64 67 69 69
161 159 155 151 147 145 148 152 151 147 140 132 122 99 80 77 76 67 56 49 47 44 42 41 35 28 25 25 27 30 32 32 33 33 34 34 34 36 39 41 41 41 40 39 39 38 37 36 37 38 38 37 37 36 36 36 36 35 34 34 34 35 38 41 43 45 48 49 49 50 51 51 51 53 56 58 58 58 59 61 62 63 66 68 69
167 165 163 162 161 159 161 163 166 165 161 155 155 156 143 109 72 61 53 45 39 34 29 31 34 31 25 23 26 30 31 31 31 32 33 34 34 35 38 40 40 42 42 40 40 40 39 37 37 36 36 35 34 33 33 33 33 33 34 34 33 33 35 38 40 43 45 46 48 49 50 50 51 51 54 56 58 59 61 62 62 62 63 65 67
171 170 170 174 178 181 183 184 185 187 184 177 181 197 213 225 291 15 26 29 27 24 22 20 22 26 25 23 25 28 28 27 28 28 29 31 33 34 36 37 38 40 42 41 41 41 40 38 36 35 34 33 32 31 31 30 30 30 31 31 31 31 32 34 35 39 41 43 45 47 49 51 51 51 52 54 55 56 59 60 61 60 59 60 62
179 179 181 188 195 200 203 205 208 211 208 201 205 226 246 256 269 299 334 353 0 7 14 15 10 13 20 21 22 24 22 21 23 25 26 27 29 31 33 34 35 36 38 39 40 40 40 38 36 35 33 32 31 31 30 30 30 30 30 30 30 29 30 32 34 36 39 41 42 45 48 51 53 53 52 52 52 53 55 57 58 59 59 58 60
190 193 196 202 208 214 216 219 222 224 223 222 226 237 251 261 271 287 306 322 331 341 358 7 5 1 6 13 17 18 16 14 15 19 22 23 24 26 28 30 31 32 33 34 36 36 37 36 35 34 33 32 31 30 30 31 31 31 31 31 31 30 31 32 34 36 38 40 41 43 45 49 52 54 54 54 53 52 53 55 57 58 59 60 60
196 199 203 208 215 222 224 226 229 229 227 228 231 236 248 261 269 280 294 305 311 317 331 350 358 356 357 2 8 10 10 8 9 11 15 17 19 21 23 24 26 27 28 29 31 32 34 34 33 33 33 32 31 31 32 32 33 33 33 33 32 32 32 33 33 35 37 40 42 44 45 47 51 54 57 57 56 55 55 55 56 57 58 60 62
197 200 206 212 220 226 227 225 225 225 224 225 227 230 238 250 261 277 293 297 294 295 307 328 345 351 354 356 1 4 4 3 4 5 7 10 12 15 17 18 19 21 23 25 26 28 31 31 31 31 32 32 33 34 35 35 36 36 36 36 34 33 33 33 33 33 34 36 39 42 45 47 49 51 55 58 59 58 57 57 57 57 56 56 59
200 205 210 216 222 226 223 218 216 217 220 221 221 223 229 240 254 271 290 299 292 281 281 304 330 345 349 351 355 359 359 360 1 2 3 4 5 7 9 10 11 13 14 16 18 22 27 29 30 30 31 33 35 36 36 38 38 39 39 39 37 36 35 34 33 33 33 33 34 36 40 44 47 49 52 55 56 57 58 57 57 59 59 56 56
206 210 214 219 225 230 227 219 212 210 215 218 217 223 233 242 251 263 279 298 301 291 277 280 303 327 338 342 346 350 352 355 358 0 1 1 1 0 0 1 1 2 4 5 6 10 15 21 24 26 28 32 34 35 35 36 37 38 38 38 37 36 35 34 33 33 32 32 33 32 33 35 39 43 46 48 48 50 52 51 52 57 63 62 58
214 217 221 225 230 236 237 226 215 209 212 218 223 232 242 249 255 263 272 286 300 305 299 287 281 291 308 319 326 335 341 346 350 352 354 355 355 354 353 353 351 351 350 350 351 353 355 0 7 13 18 22 25 27 28 30 32 33 34 34 34 33 33 32 32 31 31 31 32 32 32 32 32 34 37 40 42 42 43 45 48 52 59 64 64
222 224 227 231 235 239 241 233 222 217 220 227 234 242 249 253 258 264 269 277 286 295 302 300 289 279 279 287 299 310 318 325 332 335 338 340 342 343 344 344 343 342 339 336 336 338 339 340 344 350 356 3 7 10 14 17 20 22 24 26 27 27 27 27 28 28 29 29 28 30 31 31 31 31 32 34 36 38 39 40 43 46 49 54 64
227 228 229 233 236 239 240 236 231 231 235 241 246 251 256 261 264 267 270 274 279 284 290 295 294 286 277 275 281 291 298 305 312 317 320 323 325 327 329 331 331 330 329 327 325 324 324 326 329 333 338 342 344 348 354 358 2 5 9 12 15 16 17 20 22 23 24 25 25 25 27 27 28 28 27 26 27 30 31 31 31 33 35 39 44
228 228 230 232 236 240 242 241 240 243 247 251 254 259 265 269 271 272 274 276 278 280 283 286 289 289 284 277 276 282 290 297 303 307 310 312 314 314 315 317 317 318 317 317 315 314 313 313 313 315 320 323 326 329 334 338 342 347 351 355 359 2 5 8 12 15 17 19 20 21 22 22 23 23 23 23 22 22 21 21 22 22 22 22 22
228 229 231 234 238 241 244 245 246 249 253 257 261 265 269 271 273 276 278 279 280 281 281 280 281 283 284 281 278 279 284 290 296 301 304 305 307 308 307 306 305 306 306 306 306 305 304 304 303 301 302 303 306 310 314 318 323 329 334 338 344 348 352 355 359 3 6 9 11 14 15 15 16 17 17 18 19 19 16 14 14 15 17 15 11
228 229 233 236 239 241 244 248 251 254 258 262 266 269 271 273 274 276 277 279 280 281 279 278 277 277 279 280 279 279 282 287 291 296 300 302 304 306 306 303 300 297 296 297 299 299 298 297 296 296 295 294 292 292 295 298 302 307 313 319 326 332 337 342 345 348 352 355 358 1 3 4 6 7 8 9 12 13 13 12 10 9 9 10 7